QPF
0.03 0.02 0.02 0.02 0.02 0.03 0.03 0.02 0.03 0.03 0.03 0.03 0.02 0.02 0.01 0.01 0.02 0.02 0.02 0.03 0.03 0.03 0.02 0.03 0.03 0.03 0.04 0.04 0.04 0.05 0.06 0.08 0.06 0.05 0.06 0.06 0.06 0.06 0.08 0.10 0.09 0.07 0.04
0.02 0.02 0.03 0.02 0.03 0.03 0.03 0.03 0.03 0.03 0.02 0.03 0.02 0.01 0.01 0.01 0.02 0.02 0.01 0.02 0.02 0.03 0.03 0.04 0.03 0.03 0.04 0.04 0.05 0.05 0.06 0.07 0.07 0.07 0.08 0.07 0.07 0.06 0.06 0.08 0.07 0.06 0.04
0.03 0.02 0.02 0.02 0.02 0.03 0.03 0.02 0.02 0.02 0.02 0.02 0.01 0.01 0.01 0.01 0.01 0.01 0.01 0.01 0.02 0.03 0.04 0.04 0.04 0.04 0.04 0.05 0.05 0.06 0.07 0.06 0.08 0.09 0.08 0.07 0.07 0.06 0.07 0.05 0.05 0.06 0.03
0.03 0.02 0.01 0.01 0.01 0.02 0.02 0.01 0.01 0.03 0.02 0.02 0.01 0.01 0.01 0.01 0.01 0.01 0.01 0.01 0.02 0.02 0.03 0.03 0.03 0.03 0.03 0.04 0.04 0.05 0.06 0.07 0.08 0.08 0.07 0.06 0.06 0.07 0.08 0.06 0.06 0.08 0.06
0.03 0.02 0.01 0.01 0.01 0.02 0.02 0.01 0.02 0.03 0.02 0.02 0.02 0.01 0.01 0.01 0.01 0.01 0.01 0.01 0.02 0.02 0.03 0.03 0.02 0.01 0.02 0.03 0.03 0.04 0.05 0.06 0.06 0.07 0.06 0.06 0.06 0.06 0.06 0.06 0.07 0.07 0.08
0.02 0.02 0.02 0.02 0.02 0.02 0.02 0.01 0.02 0.03 0.02 0.02 0.02 0.02 0.02 0.01 0.02 0.02 0.01 0.02 0.02 0.03 0.03 0.03 0.03 0.02 0.02 0.02 0.02 0.03 0.04 0.05 0.06 0.07 0.07 0.06 0.05 0.05 0.06 0.06 0.05 0.06 0.07
0.03 0.03 0.02 0.02 0.02 0.02 0.01 0.01 0.03 0.03 0.02 0.02 0.02 0.02 0.02 0.01 0.01 0.01 0.01 0.01 0.02 0.03 0.03 0.03 0.03 0.03 0.03 0.04 0.03 0.02 0.02 0.03 0.04 0.05 0.06 0.06 0.05 0.05 0.05 0.05 0.04 0.04 0.05
0.04 0.03 0.02 0.01 0.01 0.01 0.01 0.02 0.04 0.03 0.02 0.01 0.01 0.02 0.01 0.01 0.01 0.01 0.01 0.02 0.03 0.03 0.03 0.03 0.03 0.04 0.03 0.04 0.05 0.04 0.03 0.03 0.03 0.02 0.03 0.04 0.04 0.05 0.05 0.06 0.06 0.05 0.05
0.04 0.02 0.01 0.01 0.01 0.02 0.02 0.03 0.03 0.03 0.02 0.02 0.02 0.02 0.02 0.01 0.00 0.00 0.00 0.01 0.02 0.02 0.02 0.02 0.02 0.02 0.03 0.03 0.04 0.04 0.04 0.05 0.04 0.03 0.02 0.02 0.02 0.02 0.03 0.05 0.06 0.05 0.04
0.04 0.01 0.01 0.01 0.01 0.01 0.02 0.03 0.03 0.03 0.02 0.03 0.03 0.02 0.01 0.01 0.01 0.00 0.00 0.01 0.01 0.02 0.02 0.03 0.02 0.01 0.02 0.03 0.05 0.06 0.05 0.05 0.04 0.02 0.02 0.01 0.01 0.01 0.01 0.03 0.05 0.05 0.03
0.04 0.02 0.02 0.02 0.01 0.01 0.01 0.02 0.04 0.04 0.04 0.04 0.03 0.03 0.02 0.02 0.02 0.01 0.01 0.00 0.01 0.01 0.01 0.03 0.02 0.01 0.01 0.01 0.01 0.03 0.04 0.04 0.04 0.04 0.04 0.03 0.03 0.02 0.01 0.01 0.03 0.05 0.05
0.03 0.03 0.02 0.02 0.01 0.01 0.02 0.02 0.03 0.03 0.04 0.04 0.04 0.04 0.03 0.02 0.02 0.01 0.01 0.00 0.01 0.01 0.01 0.02 0.02 0.01 0.00 0.00 0.01 0.00 0.00 0.01 0.02 0.03 0.03 0.03 0.03 0.03 0.03 0.02 0.02 0.03 0.05
0.03 0.04 0.04 0.02 0.03 0.03 0.02 0.02 0.02 0.03 0.03 0.03 0.04 0.04 0.03 0.03 0.02 0.02 0.01 0.01 0.01 0.01 0.02 0.02 0.01 0.01 0.01 0.01 0.01 0.01 0.01 0.01 0.02 0.02 0.02 0.03 0.03 0.03 0.03 0.02 0.02 0.02 0.03
0.04 0.05 0.05 0.04 0.05 0.05 0.03 0.03 0.03 0.04 0.04 0.03 0.02 0.02 0.03 0.03 0.02 0.02 0.02 0.01 0.01 0.01 0.01 0.01 0.01 0.01 0.01 0.01 0.01 0.01 0.01 0.01 0.01 0.02 0.03 0.04 0.04 0.04 0.03 0.02 0.02 0.02 0.02
0.06 0.07 0.08 0.05 0.05 0.04 0.04 0.05 0.04 0.03 0.03 0.03 0.02 0.01 0.02 0.02 0.02 0.02 0.03 0.03 0.02 0.02 0.02 0.02 0.01 0.01 0.01 0.01 0.01 0.01 0.01 0.01 0.01 0.02 0.03 0.04 0.05 0.05 0.04 0.03 0.02 0.01 0.02
0.03 0.06 0.08 0.07 0.04 0.03 0.04 0.04 0.04 0.03 0.03 0.02 0.02 0.02 0.02 0.02 0.02 0.03 0.04 0.04 0.05 0.04 0.02 0.02 0.02 0.01 0.01 0.01 0.02 0.02 0.02 0.02 0.02 0.03 0.03 0.04 0.05 0.05 0.04 0.05 0.03 0.02 0.02
0.02 0.03 0.06 0.07 0.06 0.05 0.04 0.04 0.04 0.04 0.03 0.03 0.03 0.02 0.02 0.02 0.02 0.02 0.02 0.03 0.05 0.05 0.03 0.02 0.02 0.02 0.01 0.02 0.02 0.02 0.02 0.02 0.02 0.02 0.03 0.04 0.04 0.03 0.03 0.04 0.04 0.03 0.02
0.04 0.03 0.04 0.06 0.06 0.05 0.05 0.05 0.04 0.04 0.05 0.04 0.03 0.02 0.02 0.02 0.02 0.02 0.02 0.02 0.03 0.04 0.03 0.03 0.02 0.02 0.02 0.02 0.02 0.02 0.02 0.02 0.02 0.03 0.03 0.03 0.03 0.03 0.03 0.03 0.03 0.03 0.02
0.04 0.04 0.03 0.04 0.05 0.04 0.04 0.05 0.05 0.05 0.05 0.04 0.04 0.04 0.03 0.03 0.03 0.02 0.02 0.01 0.01 0.01 0.01 0.02 0.02 0.02 0.02 0.02 0.03 0.03 0.03 0.02 0.03 0.03 0.03 0.04 0.04 0.03 0.02 0.02 0.03 0.03 0.03
0.04 0.05 0.04 0.04 0.04 0.04 0.04 0.04 0.05 0.06 0.06 0.05 0.04 0.03 0.03 0.01 0.01 0.01 0.01 0.01 0.00 0.00 0.01 0.01 0.01 0.02 0.02 0.02 0.02 0.03 0.02 0.03 0.04 0.04 0.04 0.04 0.04 0.03 0.03 0.04 0.04 0.04 0.04
0.04 0.04 0.04 0.04 0.05 0.04 0.05 0.05 0.05 0.05 0.06 0.05 0.03 0.03 0.02 0.02 0.01 0.01 0.01 0.01 0.01 0.01 0.01 0.02 0.02 0.02 0.02 0.02 0.02 0.02 0.02 0.03 0.04 0.05 0.05 0.04 0.04 0.04 0.05 0.05 0.05 0.06 0.06
0.03 0.04 0.05 0.05 0.05 0.04 0.04 0.04 0.04 0.04 0.05 0.04 0.03 0.02 0.02 0.02 0.02 0.02 0.01 0.01 0.01 0.01 0.02 0.02 0.02 0.02 0.01 0.02 0.02 0.02 0.03 0.04 0.04 0.04 0.04 0.04 0.04 0.04 0.04 0.04 0.04 0.05 0.05
0.03 0.04 0.05 0.06 0.06 0.05 0.04 0.04 0.04 0.03 0.04 0.03 0.02 0.02 0.02 0.02 0.02 0.03 0.03 0.02 0.02 0.02 0.02 0.03 0.03 0.02 0.02 0.03 0.03 0.03 0.04 0.04 0.03 0.03 0.03 0.03 0.03 0.02 0.02 0.02 0.02 0.02 0.03
0.03 0.04 0.04 0.05 0.05 0.04 0.04 0.04 0.04 0.03 0.03 0.03 0.02 0.02 0.02 0.02 0.02 0.02 0.02 0.03 0.02 0.01 0.01 0.02 0.02 0.02 0.02 0.02 0.02 0.03 0.03 0.03 0.03 0.02 0.02 0.02 0.01 0.01 0.01 0.01 0.01 0.01 0.02
0.03 0.03 0.04 0.04 0.04 0.04 0.03 0.04 0.04 0.03 0.03 0.03 0.03 0.02 0.02 0.02 0.02 0.02 0.02 0.02 0.02 0.01 0.01 0.01 0.01 0.02 0.01 0.01 0.02 0.02 0.02 0.02 0.02 0.02 0.03 0.03 0.02 0.02 0.02 0.01 0.01 0.01 0.02
0.02 0.02 0.03 0.04 0.04 0.04 0.04 0.04 0.04 0.03 0.02 0.02 0.03 0.02 0.02 0.01 0.01 0.01 0.01 0.02 0.02 0.01 0.01 0.01 0.01 0.01 0.01 0.01 0.02 0.02 0.03 0.02 0.02 0.02 0.03 0.03 0.03 0.03 0.02 0.02 0.02 0.02 0.02
MSLP
1005.42 1006.61 1007.75 1008.75 1009.56 1010.17 1010.60 1010.91 1011.15 1011.38 1011.63 1011.94 1012.28 1012.61 1012.91 1013.12 1013.21 1013.17 1013.02 1012.78 1012.54 1012.33 1012.23 1012.28 1012.48 1012.83 1013.31 1013.85 1014.41 1014.94 1015.38 1015.72 1015.95 1016.08 1016.13 1016.14 1016.12 1016.12 1016.14 1016.19 1016.27 1016.36 1016.47
1005.48 1006.66 1007.78 1008.78 1009.60 1010.24 1010.71 1011.07 1011.35 1011.63 1011.93 1012.27 1012.65 1013.03 1013.38 1013.65 1013.81 1013.84 1013.77 1013.60 1013.41 1013.22 1013.11 1013.11 1013.23 1013.49 1013.86 1014.32 1014.80 1015.28 1015.71 1016.06 1016.33 1016.51 1016.62 1016.66 1016.67 1016.66 1016.65 1016.64 1016.66 1016.69 1016.74
1005.83 1006.94 1008.01 1008.96 1009.76 1010.40 1010.90 1011.29 1011.63 1011.96 1012.30 1012.68 1013.10 1013.52 1013.91 1014.22 1014.45 1014.57 1014.57 1014.49 1014.35 1014.21 1014.11 1014.08 1014.15 1014.32 1014.59 1014.95 1015.34 1015.76 1016.15 1016.49 1016.78 1017.00 1017.14 1017.21 1017.24 1017.22 1017.18 1017.13 1017.08 1017.05 1017.04
1006.38 1007.39 1008.36 1009.24 1010.00 1010.63 1011.15 1011.58 1011.96 1012.34 1012.73 1013.15 1013.59 1014.03 1014.45 1014.80 1015.08 1015.26 1015.34 1015.34 1015.28 1015.19 1015.12 1015.09 1015.13 1015.24 1015.43 1015.70 1016.02 1016.36 1016.71 1017.03 1017.32 1017.55 1017.72 1017.82 1017.85 1017.83 1017.77 1017.67 1017.57 1017.47 1017.41
1007.02 1007.91 1008.77 1009.56 1010.27 1010.88 1011.41 1011.88 1012.32 1012.75 1013.18 1013.63 1014.09 1014.54 1014.97 1015.34 1015.64 1015.86 1016.00 1016.07 1016.08 1016.07 1016.05 1016.05 1016.09 1016.18 1016.33 1016.53 1016.78 1017.07 1017.37 1017.67 1017.94 1018.18 1018.36 1018.47 1018.51 1018.49 1018.41 1018.29 1018.14 1017.99 1017.87
1007.63 1008.39 1009.14 1009.85 1010.51 1011.10 1011.66 1012.18 1012.67 1013.16 1013.64 1014.12 1014.59 1015.03 1015.44 1015.80 1016.10 1016.34 1016.53 1016.66 1016.74 1016.80 1016.85 1016.91 1016.98 1017.09 1017.22 1017.39 1017.60 1017.83 1018.09 1018.35 1018.61 1018.84 1019.02 1019.15 1019.20 1019.18 1019.09 1018.96 1018.79 1018.60 1018.43
1008.15 1008.79 1009.44 1010.08 1010.70 1011.30 1011.88 1012.46 1013.02 1013.56 1014.09 1014.59 1015.06 1015.49 1015.87 1016.20 1016.48 1016.73 1016.93 1017.11 1017.26 1017.40 1017.53 1017.66 1017.78 1017.92 1018.06 1018.22 1018.41 1018.61 1018.83 1019.05 1019.28 1019.49 1019.67 1019.80 1019.86 1019.85 1019.78 1019.65 1019.47 1019.27 1019.07
1008.54 1009.09 1009.66 1010.24 1010.84 1011.46 1012.09 1012.72 1013.34 1013.95 1014.52 1015.04 1015.51 1015.92 1016.26 1016.56 1016.82 1017.05 1017.26 1017.47 1017.68 1017.89 1018.10 1018.30 1018.49 1018.67 1018.84 1019.01 1019.17 1019.35 1019.53 1019.72 1019.91 1020.10 1020.26 1020.39 1020.46 1020.47 1020.41 1020.29 1020.13 1019.94 1019.73
1008.85 1009.33 1009.84 1010.38 1010.97 1011.61 1012.28 1012.97 1013.66 1014.32 1014.93 1015.48 1015.95 1016.33 1016.65 1016.91 1017.14 1017.36 1017.58 1017.81 1018.07 1018.34 1018.61 1018.88 1019.14 1019.36 1019.55 1019.73 1019.88 1020.02 1020.16 1020.31 1020.46 1020.61 1020.75 1020.87 1020.95 1020.97 1020.95 1020.86 1020.73 1020.56 1020.36
1009.12 1009.54 1010.02 1010.54 1011.13 1011.79 1012.50 1013.23 1013.97 1014.68 1015.33 1015.90 1016.36 1016.74 1017.04 1017.28 1017.49 1017.70 1017.93 1018.19 1018.48 1018.79 1019.12 1019.44 1019.73 1019.99 1020.20 1020.37 1020.50 1020.61 1020.71 1020.81 1020.91 1021.02 1021.14 1021.23 1021.31 1021.36 1021.35 1021.31 1021.21 1021.08 1020.91
1009.42 1009.82 1010.26 1010.77 1011.36 1012.03 1012.76 1013.52 1014.29 1015.03 1015.71 1016.29 1016.77 1017.15 1017.45 1017.68 1017.90 1018.10 1018.34 1018.61 1018.93 1019.27 1019.63 1019.97 1020.29 1020.56 1020.77 1020.92 1021.03 1021.10 1021.16 1021.21 1021.27 1021.34 1021.41 1021.49 1021.57 1021.62 1021.64 1021.62 1021.57 1021.47 1021.34
1009.81 1010.19 1010.61 1011.11 1011.69 1012.35 1013.08 1013.85 1014.64 1015.39 1016.08 1016.67 1017.16 1017.56 1017.86 1018.11 1018.34 1018.56 1018.81 1019.09 1019.42 1019.77 1020.13 1020.48 1020.79 1021.05 1021.25 1021.38 1021.46 1021.49 1021.51 1021.51 1021.53 1021.56 1021.61 1021.67 1021.73 1021.78 1021.81 1021.81 1021.78 1021.72 1021.62
1010.33 1010.70 1011.11 1011.59 1012.14 1012.78 1013.49 1014.24 1015.01 1015.75 1016.43 1017.04 1017.54 1017.95 1018.28 1018.55 1018.79 1019.04 1019.30 1019.59 1019.91 1020.25 1020.60 1020.92 1021.21 1021.45 1021.61 1021.72 1021.76 1021.77 1021.76 1021.74 1021.73 1021.73 1021.75 1021.79 1021.84 1021.88 1021.90 1021.91 1021.89 1021.84 1021.75
1010.97 1011.34 1011.74 1012.20 1012.72 1013.32 1013.98 1014.69 1015.42 1016.13 1016.79 1017.39 1017.90 1018.32 1018.67 1018.97 1019.24 1019.49 1019.76 1020.05 1020.35 1020.67 1020.98 1021.27 1021.52 1021.71 1021.85 1021.93 1021.96 1021.95 1021.93 1021.90 1021.88 1021.87 1021.88 1021.90 1021.92 1021.95 1021.96 1021.94 1021.91 1021.85 1021.77
1011.74 1012.11 1012.50 1012.92 1013.41 1013.95 1014.55 1015.20 1015.87 1016.53 1017.15 1017.72 1018.23 1018.66 1019.03 1019.35 1019.63 1019.90 1020.16 1020.43 1020.71 1020.98 1021.24 1021.48 1021.68 1021.84 1021.95 1022.02 1022.04 1022.05 1022.04 1022.03 1022.02 1022.02 1022.02 1022.03 1022.03 1022.03 1022.01 1021.96 1021.90 1021.82 1021.71
1012.59 1012.97 1013.34 1013.73 1014.17 1014.65 1015.18 1015.76 1016.35 1016.94 1017.52 1018.05 1018.54 1018.96 1019.34 1019.66 1019.95 1020.22 1020.47 1020.71 1020.94 1021.17 1021.38 1021.56 1021.72 1021.85 1021.95 1022.01 1022.06 1022.09 1022.12 1022.14 1022.16 1022.18 1022.20 1022.20 1022.19 1022.15 1022.09 1022.00 1021.90 1021.77 1021.62
1013.49 1013.86 1014.22 1014.58 1014.96 1015.38 1015.84 1016.33 1016.84 1017.36 1017.88 1018.36 1018.81 1019.22 1019.59 1019.91 1020.19 1020.44 1020.66 1020.88 1021.07 1021.24 1021.40 1021.54 1021.67 1021.78 1021.88 1021.97 1022.05 1022.14 1022.22 1022.29 1022.36 1022.41 1022.44 1022.44 1022.40 1022.33 1022.22 1022.09 1021.93 1021.75 1021.56
1014.39 1014.75 1015.08 1015.40 1015.73 1016.09 1016.47 1016.88 1017.31 1017.76 1018.21 1018.64 1019.05 1019.43 1019.77 1020.08 1020.34 1020.57 1020.78 1020.95 1021.10 1021.24 1021.36 1021.48 1021.59 1021.71 1021.83 1021.96 1022.09 1022.23 1022.37 1022.50 1022.61 1022.70 1022.74 1022.73 1022.68 1022.57 1022.41 1022.22 1022.01 1021.78 1021.55
1015.26 1015.58 1015.88 1016.15 1016.43 1016.72 1017.03 1017.37 1017.73 1018.10 1018.48 1018.86 1019.23 1019.58 1019.90 1020.18 1020.43 1020.64 1020.82 1020.97 1021.09 1021.21 1021.32 1021.43 1021.55 1021.69 1021.84 1022.02 1022.22 1022.42 1022.62 1022.80 1022.95 1023.06 1023.10 1023.09 1023.00 1022.85 1022.65 1022.41 1022.14 1021.87 1021.60
1016.05 1016.33 1016.57 1016.79 1017.02 1017.24 1017.49 1017.76 1018.04 1018.36 1018.68 1019.02 1019.35 1019.66 1019.96 1020.22 1020.46 1020.66 1020.82 1020.96 1021.08 1021.20 1021.31 1021.44 1021.59 1021.77 1021.97 1022.21 1022.46 1022.72 1022.97 1023.19 1023.37 1023.48 1023.52 1023.47 1023.34 1023.15 1022.90 1022.61 1022.30 1021.99 1021.69
1016.73 1016.95 1017.13 1017.29 1017.45 1017.62 1017.80 1018.02 1018.25 1018.51 1018.79 1019.09 1019.39 1019.69 1019.97 1020.22 1020.45 1020.65 1020.82 1020.97 1021.10 1021.23 1021.38 1021.54 1021.74 1021.96 1022.22 1022.52 1022.82 1023.12 1023.41 1023.65 1023.83 1023.93 1023.94 1023.85 1023.68 1023.44 1023.14 1022.80 1022.46 1022.11 1021.79
1017.29 1017.43 1017.54 1017.64 1017.74 1017.85 1017.98 1018.15 1018.34 1018.56 1018.82 1019.09 1019.38 1019.66 1019.93 1020.20 1020.43 1020.64 1020.83 1021.01 1021.17 1021.34 1021.53 1021.74 1021.98 1022.27 1022.58 1022.91 1023.26 1023.59 1023.89 1024.13 1024.30 1024.36 1024.33 1024.20 1023.98 1023.68 1023.33 1022.95 1022.57 1022.21 1021.87
1017.71 1017.77 1017.81 1017.84 1017.89 1017.95 1018.04 1018.17 1018.34 1018.54 1018.78 1019.04 1019.33 1019.61 1019.90 1020.17 1020.43 1020.66 1020.88 1021.09 1021.29 1021.51 1021.74 1022.00 1022.30 1022.62 1022.98 1023.35 1023.72 1024.06 1024.35 1024.58 1024.71 1024.74 1024.66 1024.47 1024.19 1023.84 1023.45 1023.03 1022.62 1022.23 1021.89
1017.99 1017.98 1017.96 1017.94 1017.95 1017.97 1018.04 1018.15 1018.30 1018.50 1018.74 1019.01 1019.30 1019.60 1019.90 1020.19 1020.47 1020.73 1020.98 1021.22 1021.47 1021.72 1021.99 1022.29 1022.62 1022.98 1023.36 1023.75 1024.12 1024.45 1024.73 1024.93 1025.02 1025.00 1024.87 1024.63 1024.31 1023.91 1023.47 1023.02 1022.59 1022.18 1021.82
1018.16 1018.10 1018.04 1017.99 1017.97 1017.98 1018.04 1018.15 1018.30 1018.51 1018.76 1019.04 1019.34 1019.66 1019.98 1020.29 1020.59 1020.88 1021.15 1021.41 1021.67 1021.95 1022.24 1022.56 1022.91 1023.28 1023.66 1024.04 1024.40 1024.71 1024.96 1025.12 1025.18 1025.12 1024.95 1024.68 1024.31 1023.88 1023.41 1022.93 1022.47 1022.04 1021.66
1018.26 1018.17 1018.10 1018.04 1018.02 1018.03 1018.10 1018.22 1018.40 1018.62 1018.89 1019.18 1019.51 1019.84 1020.17 1020.49 1020.80 1021.09 1021.37 1021.64 1021.90 1022.18 1022.47 1022.78 1023.11 1023.46 1023.82 1024.18 1024.51 1024.80 1025.01 1025.14 1025.17 1025.08 1024.89 1024.59 1024.21 1023.76 1023.28 1022.78 1022.30 1021.85 1021.45
Thickness
5751 5749 5745 5742 5740 5738 5734 5732 5730 5728 5726 5724 5722 5720 5717 5715 5713 5711 5709 5707 5705 5703 5701 5699 5698 5697 5696 5695 5695 5693 5691 5689 5683 5686 5688 5689 5689 5688 5688 5687 5686 5685 5684
5747 5744 5741 5739 5736 5732 5729 5728 5726 5724 5722 5720 5718 5715 5713 5711 5709 5707 5704 5703 5700 5697 5696 5694 5692 5692 5690 5689 5688 5687 5686 5685 5681 5678 5680 5681 5682 5683 5683 5682 5682 5682 5680
5743 5740 5736 5733 5730 5727 5725 5724 5722 5720 5718 5716 5713 5710 5708 5706 5704 5702 5701 5699 5696 5694 5691 5689 5687 5685 5683 5683 5682 5681 5680 5680 5677 5675 5674 5676 5676 5676 5676 5676 5677 5677 5677
5738 5735 5731 5728 5726 5723 5721 5720 5718 5715 5713 5710 5708 5706 5704 5701 5699 5697 5696 5694 5692 5690 5688 5686 5683 5680 5678 5677 5676 5675 5674 5672 5672 5670 5669 5669 5668 5669 5669 5668 5668 5670 5670
5732 5729 5726 5724 5722 5720 5717 5715 5713 5711 5709 5706 5703 5700 5698 5696 5694 5691 5689 5689 5686 5684 5683 5681 5679 5677 5674 5672 5671 5669 5668 5666 5665 5663 5662 5662 5661 5660 5660 5662 5661 5663 5663
5727 5724 5722 5720 5717 5714 5712 5710 5707 5705 5703 5701 5698 5694 5692 5690 5686 5684 5683 5682 5681 5679 5677 5675 5674 5672 5670 5668 5666 5664 5663 5661 5658 5656 5656 5655 5654 5655 5655 5656 5655 5654 5653
5721 5719 5717 5715 5712 5709 5708 5704 5702 5699 5697 5694 5692 5689 5686 5683 5681 5680 5678 5677 5675 5673 5671 5669 5668 5667 5664 5663 5661 5660 5658 5657 5655 5652 5650 5650 5650 5650 5649 5649 5649 5648 5648
5715 5713 5712 5709 5706 5704 5702 5699 5696 5694 5691 5689 5687 5684 5682 5679 5676 5674 5673 5672 5670 5669 5667 5664 5662 5659 5658 5656 5655 5654 5653 5652 5651 5649 5647 5647 5647 5646 5645 5644 5644 5644 5645
5708 5706 5705 5703 5700 5698 5695 5692 5690 5688 5686 5684 5683 5680 5677 5675 5672 5670 5668 5667 5666 5664 5662 5659 5657 5654 5652 5651 5650 5648 5647 5647 5647 5645 5643 5642 5641 5641 5639 5637 5636 5635 5635
5701 5700 5699 5697 5695 5692 5690 5688 5685 5683 5682 5680 5678 5676 5674 5671 5668 5666 5663 5663 5661 5658 5656 5653 5651 5649 5647 5645 5643 5642 5640 5641 5641 5640 5638 5637 5636 5635 5634 5631 5630 5628 5627
5696 5694 5693 5691 5689 5687 5685 5683 5680 5678 5677 5675 5673 5671 5669 5667 5664 5661 5659 5657 5656 5653 5651 5648 5646 5644 5642 5639 5637 5636 5635 5635 5634 5634 5633 5631 5630 5629 5628 5627 5625 5623 5622
5690 5688 5686 5685 5684 5683 5679 5677 5675 5673 5670 5668 5667 5665 5664 5662 5659 5656 5654 5652 5650 5647 5645 5644 5641 5639 5636 5634 5632 5631 5630 5629 5629 5628 5626 5624 5623 5623 5623 5623 5622 5621 5620
5682 5680 5679 5678 5677 5676 5673 5671 5669 5667 5665 5663 5662 5660 5658 5657 5653 5650 5648 5645 5644 5641 5640 5638 5635 5633 5631 5629 5628 5626 5624 5623 5623 5621 5619 5618 5618 5618 5618 5617 5616 5616 5615
5674 5673 5672 5671 5670 5669 5667 5666 5664 5662 5660 5658 5657 5655 5653 5651 5648 5645 5642 5639 5637 5634 5633 5631 5629 5628 5626 5625 5624 5622 5620 5619 5617 5615 5613 5612 5612 5611 5611 5611 5610 5609 5608
5667 5666 5665 5665 5664 5662 5661 5659 5657 5655 5654 5652 5651 5649 5646 5643 5639 5637 5635 5633 5631 5629 5626 5626 5625 5625 5624 5623 5621 5619 5617 5614 5612 5610 5608 5606 5605 5604 5604 5604 5603 5603 5601
5659 5659 5658 5658 5658 5656 5654 5651 5650 5649 5647 5646 5644 5642 5640 5636 5632 5630 5628 5626 5623 5621 5619 5620 5620 5621 5620 5619 5617 5614 5612 5610 5608 5606 5604 5602 5600 5599 5598 5598 5597 5596 5595
5652 5651 5651 5651 5651 5649 5647 5645 5643 5641 5640 5638 5636 5634 5631 5628 5625 5622 5620 5618 5616 5613 5613 5616 5616 5616 5615 5614 5612 5610 5608 5606 5605 5602 5600 5598 5596 5594 5593 5592 5591 5590 5590
5646 5646 5645 5644 5644 5643 5641 5640 5639 5638 5635 5632 5629 5626 5624 5621 5618 5616 5613 5610 5611 5611 5611 5612 5612 5611 5610 5609 5607 5605 5603 5601 5599 5598 5596 5594 5592 5590 5588 5587 5586 5585 5584
5640 5639 5639 5639 5638 5637 5636 5636 5634 5632 5630 5628 5626 5621 5618 5615 5612 5609 5607 5606 5609 5610 5609 5608 5607 5607 5606 5604 5602 5600 5598 5596 5594 5592 5591 5589 5588 5586 5584 5583 5582 5581 5580
5634 5632 5632 5632 5631 5631 5630 5629 5627 5626 5624 5622 5620 5618 5614 5610 5609 5606 5604 5604 5605 5605 5604 5602 5602 5601 5600 5598 5597 5595 5593 5591 5589 5587 5586 5584 5583 5582 5580 5579 5578 5576 5575
5628 5628 5625 5625 5624 5623 5622 5622 5621 5619 5617 5616 5614 5613 5609 5608 5607 5605 5603 5602 5601 5600 5598 5597 5597 5596 5595 5593 5591 5589 5587 5586 5583 5581 5580 5579 5578 5576 5575 5574 5573 5572 5570
5620 5621 5620 5618 5616 5615 5614 5614 5614 5613 5611 5609 5608 5606 5602 5602 5602 5600 5599 5597 5595 5594 5593 5592 5591 5589 5587 5586 5584 5583 5581 5579 5577 5576 5574 5573 5572 5571 5570 5569 5568 5567 5566
5612 5612 5611 5610 5608 5606 5605 5605 5605 5604 5603 5603 5601 5599 5597 5596 5595 5594 5593 5592 5590 5588 5586 5584 5582 5581 5580 5579 5577 5574 5572 5570 5569 5568 5567 5566 5566 5565 5564 5563 5562 5561 5560
5605 5604 5603 5602 5600 5599 5598 5597 5596 5596 5596 5595 5594 5593 5591 5589 5589 5588 5586 5584 5582 5580 5578 5575 5573 5572 5570 5569 5567 5566 5563 5562 5560 5560 5559 5558 5558 5558 5557 5556 5556 5555 5554
5596 5595 5594 5593 5592 5592 5591 5590 5589 5588 5588 5588 5587 5586 5585 5583 5582 5580 5579 5577 5575 5573 5570 5568 5566 5564 5562 5560 5558 5556 5555 5554 5553 5551 5551 5551 5550 5550 5549 5549 5548 5548 5547
5588 5587 5586 5585 5584 5584 5583 5582 5582 5581 5581 5581 5581 5579 5578 5576 5575 5573 5572 5569 5567 5564 5562 5560 5558 5556 5554 5553 5550 5549 5547 5546 5545 5544 5543 5543 5543 5542 5542 5541 5541 5540 5540